Preview of NWS' New Version of Forecast
This preview is not operational and should not be used for support decisions.

Regional Weather Roundup (RWR)

Issued by National Weather Service (NWS)

                            
000
ASUS42 KTBW 211818
RWRFL 
FLORIDA REGIONAL WEATHER ROUNDUP
NATIONAL WEATHER SERVICE TAMPA BAY RUSKIN FL
200 PM EDT SAT SEP 21 2019

NOTE: "FAIR" INDICATES FEW OR NO CLOUDS BELOW 12,000 FEET WITH NO
SIGNIFICANT WEATHER AND/OR OBSTRUCTIONS TO VISIBILITY.

FLZ001>010-012>015-112-114-115-211900-
PANHANDLE FLORIDA
  
CITY           SKY/WX    TMP DP  RH WIND       PRES   REMARKS
PENSACOLA      FAIR      87  69  54 SE17G24   30.19F                  
PENSACOLA NAS  FAIR      87  71  58 E18G26    30.18F                  
MILTON NAS     PTSUNNY   90  61  37 E10G20    30.18F                  
CRESTVIEW      PTSUNNY   89  61  38 E10       30.20F                  
DUKE FIELD     FAIR      88  61  39 E9G16     30.18F                  
VALPARAISO     FAIR      87  64  44 SE12      30.18F                  
MARY ESTHER    MOSUNNY   86  68  54 SE10      30.17F                  
TRI COUNTY     PTSUNNY   88  60  38 E9        30.20F                  
PANAMA CITY    PTSUNNY   89  60  37 E10G20    30.18F                  
TYNDALL AFB    FAIR      87  59  38 E14G20    30.17F                  
APALACHICOLA   FAIR      86  64  47 E13G30    30.18F                  

STATION/POSITION SKY/WX   TEMP    WIND        PRES    WAVE   SWELL
                          AIR SEA DIR/SP/G            HT/PER HT/PER
                          (F)     (DEG/KT/KT) (MB)    (FT/S) (FT/S)
30.1N   87.6W              81 84  100/ 19/ 23 1021.9F   8/ 8   2/13
29.2N   88.2W              83     110/ 17/ 23 1020.8F   7/ 7
28.8N   86.0W                 84   90/ 19/ 23 1020.8F   8/ 8
PANAMA CITY BEAC           84 83  100/ 11/ 17 1022.5F
TOWER C                    80      70/ 18/ 21 1021.9F
28.5N   84.5W              81      70/ 16/ 21 1021.3F   6/ 6   2/ 8

$$
FLZ011-016>038-118-127-128-134-139-239-211900-
NORTH FLORIDA
  
CITY           SKY/WX    TMP DP  RH WIND       PRES   REMARKS
MARIANNA       PTSUNNY   86  60  41 NE10G21   30.20F                  
TALLAHASSEE    FAIR      88  61  40 E15       30.19F                  
PERRY          PTSUNNY   86  65  50 E8        30.19F                  
LIVE OAK       PTSUNNY   84  63  48 NE8G16    30.19F                  
CROSS CITY       N/A     86  65  50 NE12G20   30.17F                  
LAKE CITY      CLOUDY    82  61  47 E7G18     30.20F                  
GAINESVILLE    PTSUNNY   87  62  43 E16       30.20F                  
WILLISTON      PTSUNNY   87  63  45 E12G18    30.17F                  
PALATKA        FAIR      82  63  51 E16G25    30.20S                  
MAYPORT NAS    PTSUNNY   83  66  56 NE17      30.21F                  
JACKSONVILLE   PTSUNNY   85  64  49 E20G26    30.21F                  
JAX NAS        PTSUNNY   83  64  52 E16       30.21F                  
JAX CECIL      PTSUNNY   86  63  45 E13G20    30.20F                  
FERNANDINA BEA PTSUNNY   84  65  52 NE17      30.22F                  
ST AUGUSTINE   FAIR      82 N/A N/A E13       30.22F                  
PALM COAST     PTSUNNY   84  63  48 E13G21    30.19F                  

STATION/POSITION SKY/WX   TEMP    WIND        PRES    WAVE   SWELL
                          AIR SEA DIR/SP/G            HT/PER HT/PER
                          (F)     (DEG/KT/KT) (MB)    (FT/S) (FT/S)
SHELL POINT      NOT AVBL
KEATON BEACH               83      80/ 14/ 18 1021.8F
CEDAR KEY                  83      90/ 12/ 13 1021.1F
FERNANDINA                 88 81   40/  8/ 15 1024.2F
30.7N   81.3W                 81                N/A     5/ 6   2/13
MAYPORT                    79 81   60/ 13/ 20 1024.0F
31.4N   80.9W              78 81   50/ 16/ 17 1023.6F   5/ 7   3/14
ST AUGUSTINE               81 81   80/ 17/ 19 1023.0F

$$
FLZ040-043>046-052-053-057-058-063-144-211900-
INTERIOR CENTRAL FLORIDA
  
CITY           SKY/WX    TMP DP  RH WIND       PRES   REMARKS
OCALA          CLOUDY    86  63  45 E15G21    30.17F                  
LEESBURG       PTSUNNY   88  65  46 E15G22    30.17F                  
SANFORD        FAIR      86  62  44 E18G26    30.17F                  
ORLANDO EXEC   PTSUNNY   85  61  44 E16       30.16F                  
ORLANDO INTL   PTSUNNY   84  62  47 NE16G25   30.15F                  
KISSIMMEE      PTSUNNY   85  65  51 E18       30.15F                  
WINTER HAVEN   FAIR      89  66  46 E18G26    30.14F                  
LAKELAND       PTSUNNY   88  66  48 E16G23    30.13F                  
BARTOW         MOSUNNY   88  68  51 E17G24    30.12F                  
SEBRING        FAIR      86  68  54 E16G25    30.11F                  
OKEECHOBEE     PTSUNNY   82  68  61 E10G18    30.10F                  

$$
FLZ041-047-054-059-064-141-147-211900-
EAST CENTRAL FLORIDA
  
CITY           SKY/WX    TMP DP  RH WIND       PRES   REMARKS
ORMOND BEACH   PTSUNNY   84  66  54 NE18G24   30.19F                  
DAYTONA BEACH  PTSUNNY   83  68  60 NE16      30.18F                  
DELAND         CLOUDY    82  64  54 NE14G21   30.17F                  
NEW SMYRNA BEA PTSUNNY   84  66  54 E17G25    30.19F                  
JFK SPACE CTR  SUNNY     85  70  59 E13G20    30.15F                  
TITUSVILLE     PTSUNNY   88  66  48 NE14      30.17F                  
CAPE CANAVERAL FAIR      85  69  58 E15       30.14F                  
PATRICK AFB    FAIR      84  70  62 NE17      30.13F                  
MELBOURNE      PTSUNNY   85  69  58 E20       30.13F                  
VERO BEACH     PTSUNNY   87  70  56 E21       30.13S                  
FT PIERCE      CLOUDY    83  70  64 E17G23    30.12S                  
STUART         MOSUNNY   84  70  61 E22G29    30.12F                  

STATION/POSITION SKY/WX   TEMP    WIND        PRES    WAVE   SWELL
                          AIR SEA DIR/SP/G            HT/PER HT/PER
                          (F)     (DEG/KT/KT) (MB)    (FT/S) (FT/S)
28.5N   80.2W              81 83   60/ 19/ 23 1021.4F  10/15   8/15
28.9N   78.5W              79 80   60/ 19/ 25 1021.9F   9/16   8/16
TRIDENT PIER               84 82   50/ 13/ 19 1022.7F
28.4N   80.5W                 81                N/A     5/14   3/14
27.5N   80.2W                 82                N/A     9/15   5/15

$$
FLZ050-056-061-142-242-148-248-149-249-151-251-155-255-
160-260-211900-
WEST CENTRAL FLORIDA
  
CITY           SKY/WX    TMP DP  RH WIND       PRES   REMARKS
CRYSTAL RIVER  CLOUDY    86  63  45 E9G17     30.15F                  
INVERNESS      FAIR      88  66  48 NE9G17    30.15F                  
BROOKSVILLE    PTSUNNY   87  65  47 E12G23    30.14F                  
CLEARWATER AIR FAIR      86  63  45 E12G17    30.10F                  
ST PETE CLEARW FAIR      89  65  44 E13       30.10F                  
TAMPA INTL     FAIR      87  64  46 NE10G20   30.12F                  
TAMPA EXEC     FAIR      90  68  48 E9        30.12F                  
PLANT CITY     FAIR      90  72  55 E12G17    30.14F HX  96           
MACDILL AFB    FAIR      88  65  45 E15G25    30.10F                  
PETER O KNIGHT PTSUNNY   90  68  48 E17       30.11F                  
ST PETERSBURG  FAIR      86  69  56 E16       30.09F                  
SARASOTA       FAIR      90  68  48 E17       30.07F                  
VENICE         FAIR      91  68  46 E20G28    30.08F HX  95           

STATION/POSITION SKY/WX   TEMP    WIND        PRES    WAVE   SWELL
                          AIR SEA DIR/SP/G            HT/PER HT/PER
                          (F)     (DEG/KT/KT) (MB)    (FT/S) (FT/S)
27.3N   84.2W                 84                N/A     6/ 7
CLEARWATER BEACH           85 84   80/ 11/ 16 1020.0F
MIDDLE TAMPA BAY           84     100/ 16/ 19 1019.7F
VENICE                     87 84   90/ 13/ 18 1018.2F

$$
FLZ066-069-070-075>078-162-262-165-265-211900-
SOUTHWEST FLORIDA AND KEYS
  
CITY           SKY/WX    TMP DP  RH WIND       PRES   REMARKS
PUNTA GORDA    PTSUNNY   88  68  51 E18G28    30.09F                  
FT MYERS       PTSUNNY   89  70  53 E16G25    30.05F                  
SOUTHWEST INTL FAIR      89  71  55 E18G29    30.06F HX  95           
NAPLES         FAIR      92  74  55 NE20G26   30.03F HX 101           
MARCO ISLAND   PTSUNNY   89  72  56 NE15G23   30.04F HX  96           
IMMOKALEE      PTSUNNY   90  72  55 NE16      30.04F HX  96           
MARATHON       FAIR      86  76  71 NE20G28   29.99F HX  96           
KEY WEST NAS   PTSUNNY   86  77  74 NE14G23   29.99F HX  97           
KEY WEST INTL  FAIR      83  78  85 NE9       30.00F                  

STATION/POSITION SKY/WX   TEMP    WIND        PRES    WAVE   SWELL
                          AIR SEA DIR/SP/G            HT/PER HT/PER
                          (F)     (DEG/KT/KT) (MB)    (FT/S) (FT/S)
NAPLES                     86 84   40/  9/ 21 1017.5F
26.0N   85.6W              83 85   80/ 19/ 23 1018.1F  10/ 8
DRY TORTUGAS               83      70/ 25/ 27 1016.5F
SAND KEY                   81      70/ 19/ 23 1014.7R
SOMBRERO KEY               83      60/ 21/ 26 1015.3
LONG KEY                   80                 1014.5

$$
FLZ067-068-071>074-168-172>174-211900-
SOUTHEAST FLORIDA 
  
CITY           SKY/WX    TMP DP  RH WIND       PRES   REMARKS
W PALM BEACH   PTSUNNY   84  71  65 NE22G31   30.09F                  
BOCA RATON     MOSUNNY   88  73  62 NE21G31   30.07F HX  96           
FT LAUDER-EXEC CLOUDY    86  73  65 NE20G28   30.05F                  
FT LAUDERDALE  PTSUNNY   83  73  72 NE18G31   30.04F                  
POMPANO BEACH  PTSUNNY   86  72  62 NE23G32   30.06F                  
PEMBROKE PINES PTSUNNY   86  72  62 NE28G35   30.06F                  
OPA LOCKA      PTSUNNY   84  73  69 NE22G31   30.05F                  
MIAMI          LGT RAIN  80  74  81 NE12G28   30.04F                  
WEST KENDALL   PTSUNNY   81  76  84 NE18      30.03F                  
HOMESTEAD      PTSUNNY   82  77  83 NE23      30.01F                  

STATION/POSITION SKY/WX   TEMP    WIND        PRES    WAVE   SWELL
                          AIR SEA DIR/SP/G            HT/PER HT/PER
                          (F)     (DEG/KT/KT) (MB)    (FT/S) (FT/S)
VIRGINIA KEY               81 84   20/ 10/ 20 1017.1F
LAKE WORTH                 81 82   60/ 23/